Starlink 3139

operational
NORAD ID: 49425 Int'l Des: 2021-104 Owner: SPXS Country: US Constellation: starlink
LEOCIRCULAR

关于 Starlink 3139

正在加载描述...

实时位置

正在加载3D地球...

即将过境

高度历史

Altitude vs Time

uPlot chart will show altitude changes over time

两行轨道根数

1 49425U 21104T 26035.15860863 .00000328 00000-0 38671-4 0 9997
2 49425 53.2190 19.6585 0001476 83.1233 276.9927 15.08837725233576
Epoch: Feb 4, 2026 • Age: 7 hours

当前状态

高度 557.0 km
速度 7.58 km/s
星下点 -47.55°S, 50.83°W
发射日期 Nov 13, 2021
运行时间 4.2 years
类型 internet

技术详情

分类 Payload
质量 290.00 kg
干质量 270.00 kg
总质量 290.00 kg
长度 0.20 m
直径 2.80 m
跨度 9.00 m
形状 Box + pan
制造商 SPXS
平台类型 Starlink
阶段状态 In Orbit
所有者/国家 SPXS/US

大型星座

Loading constellations...